Miscellaneous Local Product
Issued by NWS North Platte, NE

Home | Current Version | Previous Version | Graphics & Text | Print | Product List | Glossary On
Versions: 1 2 3 4 5 6 7 8 9 10 11 12 13 14 15 16 17 18 19 20 21 22 23 24 25 26 27 28 29 30 31 32 33 34 35 36 37 38 39 40 41 42 43 44 45 46 47 48 49 50
000
AXUS43 KLBF 200410
MISLBF


WESTERN AND NORTH CENTRAL NEBRASKA HOURLY WEATHER ROUNDUP
NATIONAL WEATHER SERVICE NORTH PLATTE NE
1000 PM CST THU JAN 19 2017

NOTE: "FAIR" INDICATES FEW OR NO CLOUDS BELOW 12,000 FEET WITH NO
SIGNIFICANT WEATHER AND/OR OBSTRUCTIONS TO VISIBILITY.

NOTE: STATIONS NOT REPORTING VARIABLES SUCH AS SKY/WEATHER OR
PRESSURE ARE PROVIDED BY RAWS AND APRS NETWORKS AND ARE NOT UNDER
NATIONAL WEATHER SERVICE QUALITY CONTROL.

...OBSERVATIONS IN AND NEAR THE EASTERN PANHANDLE OF NEBRASKA...

CITY           SKY/WX    TMP DP  RH WIND       PRES   REMARKS
PINE RIDGE     CLOUDY    25  23  92 NW3       29.46F
CHADRON        CLOUDY    30  23  75 W5        29.50R WCI  25
ALLIANCE       CLOUDY    23  19  85 CALM      29.48F
SIDNEY         CLOUDY    27  22  81 W6        29.52F WCI  20
CRESCENT LAKE    N/A     33  27  79 SE3         N/A
$$

...OBSERVATIONS IN NORTHERN NEBRASKA AND FAR SOUTHERN SOUTH DAKOTA...

CITY           SKY/WX    TMP DP  RH WIND       PRES   REMARKS
WINNER         FAIR      37  34  89 S14       29.46F WCI  28
VALENTINE      CLEAR     32  29  88 S9        29.46F FOG     WCI  24
THEDFORD       CLOUDY    35  34  96 SW18      29.51F FOG     WCI  24
AINSWORTH      CLOUDY    36  36 100 SW17      29.48F FOG     WCI  25
O`NEILL        CLOUDY    41  40  94 S13       29.53S
ORD            CLOUDY    40  37  89 S6        29.55S
BROKEN BOW     CLOUDY    40  38  93 SW12      29.54R WCI  33
VALENTINE NWR    N/A     33  33 100 S15         N/A  WCI  23
BUTTE            N/A     39  37  93 S12G21      N/A  WCI  32
HALSEY           N/A     35  35 100 S6G14       N/A  WCI  30
SARGENT          N/A     40  31  71 CALM        N/A
CHAMBERS         N/A     40  39  97 S3          N/A
EWING            N/A     40  39  97 S7          N/A
$$

...OBSERVATIONS IN SOUTHWEST NEBRASKA AND FAR NORTHEAST COLORADO...

CITY           SKY/WX    TMP DP  RH WIND       PRES   REMARKS
HOLYOKE        FAIR      27  23  86 S5        29.53S WCI  21
IMPERIAL       FOG       34  34 100 S7        29.54F VSB 1/4 WCI  28
OGALLALA       FOG       33  32  96 SW6       29.54F VSB 3/4 WCI  27
NORTH PLATTE   CLOUDY    38  36  92 SW7       29.55F WCI  33
MCCOOK         FOG       34  34 100 CALM      29.57S VSB 1/4
LEXINGTON      FOG       37  35  95 CALM      29.57R VSB 1/2
STAPLETON        N/A     35  34  97 CALM        N/A
GOTHENBURG       N/A     39  37  94 S3          N/A
CALLAWAY         N/A     38  37  96 SW13        N/A  WCI  30
$$

...OBSERVATIONS IN CENTRAL LINCOLN COUNTY AREA...

CITY           SKY/WX    TMP DP  RH WIND       PRES   REMARKS
N.P. AIRPORT   CLOUDY    38  36  92 SW7       29.55F WCI  33
N.P. DOWNTOWN    N/A     36  35  96 CALM        N/A
N.P. SOUTHEAST   N/A     37  36  95 CALM        N/A
N.P. HILLCREST   N/A     36  36 100 SW7         N/A  WCI  30
$$

...SOME OBSERVATIONS FROM AROUND THE REGION...

CITY           SKY/WX    TMP DP  RH WIND       PRES   REMARKS
LARAMIE        CLOUDY    16  12  84 CALM      29.57S
CHEYENNE       CLOUDY    33  19  56 W16       29.52F WCI  23
DENVER         CLOUDY    35  21  56 SW7       29.53R WCI  29
AKRON          CLOUDY    36  22  56 W3        29.51F
SCOTTSBLUFF    CLOUDY    31  24  75 NW5       29.52S WCI  26
RAPID CITY     CLOUDY    28  19  69 W6        29.43F WCI  22
BISMARCK       CLOUDY    12   9  87 E6        29.48F WCI   3
PIERRE         FOG       21  20  96 CALM      29.45F VSB 1/4
SIOUX FALLS    DRZL/FOG  38  38 100 SE12      29.60S VSB 3/4 WCI  30
OMAHA          FOG       39  36  89 CALM      29.64F VSB 1/2
GRAND ISLAND   FOG       38  38 100 SE7       29.57F VSB 3/4 WCI  33
KANSAS CITY    DRIZZLE   46  43  89 CALM      29.65R FOG
WICHITA        MOCLDY    42  41  96 E5        29.59S
OKLAHOMA CITY  CLEAR     43  43 100 S8        29.55S
DALLAS         CLEAR     57  54  89 S14       29.62S
AMARILLO       CLOUDY    45  30  55 W6        29.55S
DODGE CITY     CLOUDY    43  35  73 CALM      29.56F
HAYS           FOG       43  42  97 SE6       29.58S VSB 1/4
GOODLAND       FOG       33  33 100 S8        29.54F VSB 3/4 WCI  26
$$




USA.gov is the U.S. government's official web portal to all federal, state and local government web resources and services.